Date String (YYYY-MM-DD hh:mm:ss) UTC,Instrument flags,Ambient pressure (hPa),Sample flow (lpm),Bypass flow (lpm),Sample temperature (°C),Ambient temperature (°C),ASC tube jacket temperature (°C),LED temperature (°C),Box temperature (°C),Sample RH (%),Span deviation,Mass concentration (μg/m³),Mass concentration (μg/m³),Mass concentration (μg/m³)
DateTimeUTC,F1_M11,P_M11,Q1_M11,Q2_M11,T1_M11,T2_M11,T3_M11,T4_M11,T5_M11,U1_M11,ZSPAN_M11,X0_M11,X2_M11,X1_M11
2022-03-16 10:00:00,,0821.5,5.01,0.00,25.3,24.6,00.0,34.4,27.1,09.5,0000.0,0003.39,0001.56,0000.99
2022-03-16 10:01:00,,0821.4,5.00,0.00,25.3,24.6,00.0,34.4,27.1,09.5,0000.0,0003.34,0001.55,0000.99
2022-03-16 10:02:00,,0821.4,5.00,0.00,25.3,24.6,00.0,34.3,27.1,09.5,0000.0,0003.31,0001.54,0000.97
2022-03-16 10:03:00,,0821.3,5.00,0.00,25.3,24.6,00.0,34.3,27.1,09.5,0000.0,0003.36,0001.53,0000.96
2022-03-16 10:04:00,,0821.4,5.00,0.00,25.3,24.6,00.0,34.3,27.1,09.5,0000.0,0003.12,0001.49,0000.95
2022-03-16 10:05:00,,0821.3,4.99,0.00,25.3,24.6,00.0,34.3,27.1,09.5,0000.0,0002.69,0001.46,0000.94
2022-03-16 10:06:00,,0821.3,5.02,0.00,25.3,24.5,00.0,34.3,27.1,09.6,0000.0,0002.57,0001.40,0000.94
2022-03-16 10:07:00,,0821.3,4.99,0.00,25.3,24.5,00.0,34.3,27.1,09.5,0000.0,0002.48,0001.37,0000.91
2022-03-16 10:08:00,,0821.4,5.00,0.00,25.3,24.5,00.0,34.3,27.0,09.5,0000.0,0002.40,0001.37,0000.90
2022-03-16 10:09:00,,0821.4,4.99,0.00,25.3,24.4,00.0,34.3,26.9,09.6,0000.0,0002.44,0001.38,0000.90
2022-03-16 10:10:00,,0821.4,5.01,0.00,25.2,24.4,00.0,34.3,26.9,09.6,0000.0,0002.41,0001.40,0000.89
2022-03-16 10:11:00,,0821.4,5.01,0.00,25.2,24.4,00.0,34.3,26.8,09.6,0000.0,0002.32,0001.38,0000.89
2022-03-16 10:12:00,,0821.4,5.00,0.00,25.2,24.4,00.0,34.3,26.8,09.6,0000.0,0002.37,0001.38,0000.88
2022-03-16 10:13:00,,0821.4,5.00,0.00,25.2,24.4,00.0,34.3,26.9,09.6,0000.0,0002.43,0001.40,0000.88
2022-03-16 10:14:00,,0821.4,5.01,0.00,25.2,24.4,00.0,34.3,27.0,09.6,0000.0,0002.43,0001.43,0000.89
2022-03-16 10:15:00,,0821.4,5.01,0.00,25.2,24.4,00.0,34.3,26.9,09.6,0000.0,0002.31,0001.42,0000.89
2022-03-16 10:16:00,,0821.4,4.98,0.00,25.2,24.4,00.0,34.3,26.9,09.6,0000.0,0002.36,0001.43,0000.89
2022-03-16 10:17:00,,0821.4,5.01,0.00,25.2,24.4,00.0,34.3,26.9,09.7,0000.0,0002.54,0001.46,0000.89
2022-03-16 10:18:00,,0821.4,5.00,0.00,25.2,24.5,00.0,34.3,26.9,09.7,0000.0,0002.56,0001.49,0000.89
2022-03-16 10:19:00,,0821.4,5.01,0.00,25.2,24.5,00.0,34.2,26.9,09.7,0000.0,0002.67,0001.49,0000.89
2022-03-16 10:20:00,,0821.4,5.01,0.00,25.2,24.4,00.0,34.2,26.9,09.7,0000.0,0002.73,0001.51,0000.89
2022-03-16 10:21:00,,0821.4,4.99,0.00,25.2,24.4,00.0,34.2,26.8,09.7,0000.0,0002.67,0001.47,0000.89
2022-03-16 10:22:00,,0821.3,5.00,0.00,25.2,24.4,00.0,34.2,26.9,09.7,0000.0,0002.75,0001.48,0000.90
2022-03-16 10:23:00,,0821.4,5.00,0.00,25.2,24.4,00.0,34.2,26.9,09.7,0000.0,0002.70,0001.47,0000.90
2022-03-16 10:24:00,,0821.4,4.99,0.00,25.2,24.5,00.0,34.2,26.9,09.7,0000.0,0002.68,0001.46,0000.90
2022-03-16 10:25:00,,0821.3,4.99,0.00,25.2,24.5,00.0,34.2,26.9,09.7,0000.0,0002.62,0001.44,0000.91
2022-03-16 10:26:00,,0821.3,5.00,0.00,25.2,24.5,00.0,34.2,26.9,09.8,0000.0,0002.55,0001.41,0000.91
2022-03-16 10:27:00,,0821.3,5.01,0.00,25.2,24.5,00.0,34.2,26.9,09.8,0000.0,0002.55,0001.42,0000.92
2022-03-16 10:28:00,,0821.3,5.00,0.00,25.2,24.5,00.0,34.2,26.9,09.6,0000.0,0002.66,0001.42,0000.92
2022-03-16 10:29:00,,0821.1,5.00,0.00,25.2,24.5,00.0,34.2,26.9,09.7,0000.0,0002.57,0001.34,0000.92
2022-03-16 10:30:00,,0821.1,5.00,0.00,25.2,24.5,00.0,34.2,27.0,09.7,0000.0,0002.55,0001.35,0000.93
2022-03-16 10:31:00,,0821.2,4.99,0.00,25.2,24.4,00.0,34.2,27.0,09.7,0000.0,0002.57,0001.36,0000.94
2022-03-16 10:32:00,,0821.3,5.00,0.00,25.2,24.4,00.0,34.3,27.0,09.7,0000.0,0002.55,0001.36,0000.94
2022-03-16 10:33:00,,0821.3,5.00,0.00,25.2,24.4,00.0,34.3,27.0,09.7,0000.0,0002.44,0001.35,0000.94
2022-03-16 10:34:00,,0821.3,5.00,0.00,25.2,24.4,00.0,34.2,27.0,09.7,0000.0,0002.43,0001.35,0000.95
2022-03-16 10:35:00,,0821.4,5.00,0.00,25.2,24.4,00.0,34.2,27.0,09.6,0000.0,0002.40,0001.35,0000.96
2022-03-16 10:36:00,,0821.3,5.00,0.00,25.2,24.3,00.0,34.2,26.9,09.7,0000.0,0002.48,0001.38,0000.97
2022-03-16 10:37:00,,0821.4,5.01,0.00,25.2,24.3,00.0,34.2,26.8,09.7,0000.0,0002.61,0001.42,0000.99
2022-03-16 10:38:00,,0821.4,5.00,0.00,25.2,24.3,00.0,34.2,26.8,09.7,0000.0,0002.61,0001.40,0000.98
2022-03-16 10:39:00,,0821.4,5.00,0.00,25.2,24.3,00.0,34.2,26.8,09.7,0000.0,0002.53,0001.37,0000.98
2022-03-16 10:40:00,,0821.4,5.00,0.00,25.2,24.4,00.0,34.2,26.9,09.7,0000.0,0002.42,0001.38,0000.98
2022-03-16 10:41:00,,0821.4,4.99,0.00,25.2,24.4,00.0,34.2,26.9,09.7,0000.0,0002.42,0001.39,0000.98
2022-03-16 10:42:00,,0821.4,5.00,0.00,25.2,24.4,00.0,34.2,26.8,09.7,0000.0,0002.32,0001.35,0000.97
2022-03-16 10:43:00,,0821.4,5.00,0.00,25.2,24.3,00.0,34.2,26.9,09.8,0000.0,0003.34,0001.31,0000.96
2022-03-16 10:44:00,,0821.4,5.01,0.00,25.2,24.3,00.0,34.2,26.9,09.8,0000.0,0003.42,0001.29,0000.96
2022-03-16 10:45:00,,0821.4,5.00,0.00,25.2,24.3,00.0,34.2,26.9,09.8,0000.0,0003.56,0001.32,0000.96
2022-03-16 10:46:00,,0821.4,5.00,0.00,25.2,24.3,00.0,34.2,26.8,09.7,0000.0,0003.78,0001.34,0000.96
2022-03-16 10:47:00,,0821.4,5.00,0.00,25.2,24.3,00.0,34.2,26.8,09.7,0000.0,0003.86,0001.38,0000.96
2022-03-16 10:48:00,,0821.4,5.00,0.00,25.2,24.3,00.0,34.2,26.9,09.7,0000.0,0003.83,0001.37,0000.93
2022-03-16 10:49:00,,0821.5,5.00,0.00,25.2,24.4,00.0,34.2,26.8,09.7,0000.0,0003.84,0001.36,0000.92
2022-03-16 10:50:00,,0821.6,5.00,0.00,25.2,24.4,00.0,34.2,26.8,09.7,0000.0,0003.76,0001.34,0000.92
2022-03-16 10:51:00,,0821.5,5.00,0.00,25.2,24.4,00.0,34.2,26.9,09.7,0000.0,0003.84,0001.38,0000.92
2022-03-16 10:52:00,,0821.5,5.00,0.00,25.2,24.4,00.0,34.2,26.9,09.8,0000.0,0003.84,0001.37,0000.92
2022-03-16 10:53:00,,0821.5,5.00,0.00,25.2,24.4,00.0,34.2,26.9,09.8,0000.0,0004.34,0001.36,0000.92
2022-03-16 10:54:00,,0821.6,5.00,0.00,25.2,24.4,00.0,34.2,26.9,09.9,0000.0,0004.14,0001.39,0000.93
2022-03-16 10:55:00,,0821.6,4.99,0.00,25.2,24.4,00.0,34.2,26.9,09.8,0000.0,0003.87,0001.42,0000.92
2022-03-16 10:56:00,,0821.6,5.00,0.00,25.2,24.4,00.0,34.2,26.9,09.8,0000.0,0003.85,0001.41,0000.91
2022-03-16 10:57:00,,0821.5,5.00,0.00,25.2,24.4,00.0,34.2,26.9,09.7,0000.0,0003.68,0001.40,0000.90
2022-03-16 10:58:00,,0821.4,5.00,0.00,25.2,24.4,00.0,34.2,27.0,09.7,0000.0,0003.68,0001.34,0000.89
2022-03-16 10:59:00,,0821.4,5.00,0.00,25.2,24.4,00.0,34.2,26.9,09.7,0000.0,0004.10,0001.30,0000.89
